Weather History for PAFB - August, 2013

Change the Weather History Date:

Thursday, August 29, 2013

  Actual Average Record
Temperature  
Mean Temperature 52 °F -  
Max Temperature 55 °F 59 °F 86 °F (2003)
Min Temperature 48 °F 42 °F 35 °F (1999)
Degree Days  
Heating Degree Days 14    
Growing Degree Days 2 (Base 50)    
Moisture  
Dew Point 47 °F    
Average Humidity 83    
Maximum Humidity 90    
Minimum Humidity 76    
Precipitation  
Precipitation 0.02 in - - ()
Sea Level Pressure  
Sea Level Pressure 29.76 in    
Wind  
Wind Speed 2 mph (WNW)    
Max Wind Speed 6 mph    
Max Gust Speed -    
Visibility 11 miles    
Events Rain    
Averages and records for this station are not official NWS values.
T = Trace of Precipitation, MM = Missing Value Source: NWS Daily Summary

Daily Weather History Graph

Daily Weather History Graph

Search for Another Location

Airport or City:

Trip Planner

Search our weather history database for the weather conditions in past years. The results will help you decide how hot, cold, wet, or windy it might be!

Date:

Astronomy

Aug. 29, 2013 Rise Set
Actual Time 6:22 AM AKDT 9:17 PM AKDT
Civil Twilight 5:25 AM AKDT 10:13 PM AKDT
Nautical Twilight 4:02 AM AKDT 11:34 PM AKDT
Astronomical Twilight 2:23 AM AKDT 1:18 AM AKDT
Moon 11:52 PM AKDT (8/29) 6:14 PM AKDT (8/29)
Length of Visible Light 16h 47m
Length of Day
14h 55m
Last Quarter, 36% of the Moon is Illuminated
Aug 29
Last Quarter
Sep 5
New
Sep 12
First Quarter
Sep 19
Full
Sep 26
Last Quarter

Hourly Weather History & Observations

Time (AKDT) Temp. Dew Point Humidity Pressure Visibility Wind Dir Wind Speed Gust Speed Precip Events Conditions
12:56 AM 48.9 °F 43.0 °F 80% 29.68 in 10.0 mi Calm Calm - N/A   Partly Cloudy
1:56 AM 48.0 °F 43.0 °F 83% 29.67 in 10.0 mi Calm Calm - N/A   Mostly Cloudy
2:56 AM 48.0 °F 43.0 °F 83% 29.67 in 10.0 mi Calm Calm - N/A   Mostly Cloudy
3:56 AM 48.0 °F 44.1 °F 86% 29.68 in 10.0 mi NNW 3.5 mph - 0.00 in Rain Light Rain
4:56 AM 50.0 °F 45.0 °F 83% 29.68 in 10.0 mi Calm Calm - 0.00 in   Overcast
5:56 AM 48.9 °F 46.0 °F 90% 29.68 in 10.0 mi Calm Calm - 0.00 in   Overcast
6:30 AM 48.2 °F 44.6 °F 87% 29.67 in 10.0 mi Calm Calm - N/A   Mostly Cloudy
6:55 AM 48.2 °F 44.6 °F 87% 29.69 in 10.0 mi Calm Calm - N/A   Overcast
7:55 AM 50.0 °F 44.6 °F 82% 29.70 in 10.0 mi Calm Calm - N/A   Overcast
8:55 AM 51.8 °F 44.6 °F 76% 29.70 in 10.0 mi NW 3.5 mph - N/A   Mostly Cloudy
9:55 AM 51.8 °F 46.4 °F 82% 29.71 in 10.0 mi Calm Calm - N/A   Overcast
10:17 AM 51.8 °F 44.6 °F 76% 29.70 in 13.0 mi Calm Calm - N/A Rain Light Rain Showers
10:55 AM 51.8 °F 46.4 °F 82% 29.73 in 11.0 mi Calm Calm - N/A Rain Light Rain Showers
11:55 AM 53.6 °F 46.4 °F 77% 29.74 in 10.0 mi Calm Calm - N/A   Mostly Cloudy
12:55 PM 55.4 °F 48.2 °F 77% 29.75 in 10.0 mi Calm Calm - N/A Rain Light Rain Showers
1:55 PM 55.4 °F 48.2 °F 77% 29.76 in 10.0 mi Calm Calm - N/A   Light Drizzle
2:55 PM 55.4 °F 48.2 °F 77% 29.77 in 13.0 mi NNW 3.5 mph - N/A   Overcast
3:37 PM 55.4 °F 48.2 °F 77% 29.77 in 13.0 mi NW 5.8 mph - N/A Rain Light Rain Showers
3:55 PM 55.4 °F 48.2 °F 77% 29.78 in 13.0 mi NW 4.6 mph - N/A Rain Light Rain Showers
4:55 PM 55.4 °F 48.2 °F 77% 29.79 in 13.0 mi NW 5.8 mph - N/A Rain Light Rain
5:55 PM 53.6 °F 48.2 °F 82% 29.81 in 13.0 mi NW 3.5 mph - N/A Rain Light Rain
6:55 PM 51.8 °F 48.2 °F 88% 29.81 in 13.0 mi WSW 4.6 mph - N/A Rain Light Rain
7:55 PM 51.8 °F 48.2 °F 88% 29.82 in 13.0 mi West 5.8 mph - N/A Rain Light Rain
8:55 PM 51.8 °F 48.2 °F 88% 29.83 in 25.0 mi West 5.8 mph - N/A Rain Light Rain
9:55 PM 51.8 °F 48.2 °F 88% 29.84 in 13.0 mi West 5.8 mph - N/A Rain Light Rain
10:56 PM 51.1 °F 48.0 °F 89% 29.86 in 10.0 mi West 4.6 mph - 0.02 in Rain Light Rain
11:07 PM 51.8 °F 48.2 °F 88% 29.85 in 10.0 mi West 3.5 mph - 0.00 in Rain Light Rain
11:18 PM 51.8 °F 48.2 °F 88% 29.85 in 10.0 mi WSW 4.6 mph - 0.00 in   Overcast
11:53 PM 51.8 °F 48.2 °F 88% 29.86 in 10.0 mi WSW 3.5 mph - 0.00 in   Overcast
11:56 PM 51.1 °F 48.0 °F 89% 29.87 in 10.0 mi WSW 3.5 mph - 0.00 in   Overcast